| time (UTC) | temp C | wind direction | speed KPH | gust KPH | rain 1hr cm | rain 24hr cm | rain mn cm | humidity % | barometer mb |
| 20260506091502 | 8 | 232 | 1.6 | 14.5 | 0.00 | 0.00 | 0.00 | 52 | 1008.7 |
| 20260506090004 | 9 | 248 | 1.6 | 17.7 | 0.00 | 0.00 | 0.00 | 50 | 1008.6 |
| 20260506084503 | 9 | 269 | 3.2 | 24.1 | 0.00 | 0.00 | 0.00 | 48 | 1008.5 |
| 20260506083003 | 9 | 261 | 8.0 | 22.5 | 0.00 | 0.00 | 0.00 | 47 | 1008.5 |
| 20260506081503 | 10 | 240 | 8.0 | 16.1 | 0.00 | 0.00 | 0.00 | 45 | 1008.5 |
| 20260506073002 | 10 | 250 | 4.8 | 16.1 | 0.00 | 0.00 | 0.00 | 41 | 1008.3 |
| 20260506071502 | 10 | 248 | 6.4 | 16.1 | 0.00 | 0.00 | 0.00 | 39 | 1008.2 |
| 20260506061503 | 11 | 234 | 16.1 | 29.0 | 0.00 | 0.00 | 0.00 | 36 | 1007.7 |
| 20260506044503 | 12 | 215 | 6.4 | 22.5 | 0.00 | 0.00 | 0.00 | 42 | 1007.5 |
| 20260506043003 | 12 | 245 | 6.4 | 22.5 | 0.00 | 0.00 | 0.00 | 43 | 1007.3 |
| 20260506041503 | 12 | 255 | 9.7 | 24.1 | 0.00 | 0.00 | 0.00 | 44 | 1007.1 |
| 20260506040004 | 12 | 255 | 8.0 | 16.1 | 0.00 | 0.00 | 0.00 | 46 | 1007.0 |
| 20260506034504 | 12 | 234 | 8.0 | 19.3 | 0.00 | 0.00 | 0.00 | 45 | 1006.8 |
| 20260506033006 | 12 | 243 | 11.3 | 22.5 | 0.00 | 0.00 | 0.00 | 45 | 1006.6 |
| 20260506031504 | 12 | 236 | 12.9 | 32.2 | 0.00 | 0.00 | 0.00 | 44 | 1006.3 |
| 20260506030004 | 12 | 259 | 14.5 | 35.4 | 0.00 | 0.00 | 0.00 | 44 | 1006.1 |
| 20260506024503 | 12 | 246 | 14.5 | 33.8 | 0.00 | 0.00 | 0.00 | 43 | 1006.1 |
| 20260506023003 | 12 | 237 | 11.3 | 27.4 | 0.00 | 0.00 | 0.00 | 44 | 1005.9 |
| 20260506021502 | 12 | 223 | 14.5 | 33.8 | 0.00 | 0.00 | 0.00 | 44 | 1005.6 |
| 20260506020005 | 12 | 305 | 14.5 | 37.0 | 0.00 | 0.00 | 0.00 | 45 | 1005.5 |
| 20260506014504 | 12 | 264 | 19.3 | 30.6 | 0.00 | 0.00 | 0.00 | 45 | 1005.4 |
| 20260506013004 | 12 | 246 | 16.1 | 45.1 | 0.00 | 0.00 | 0.00 | 45 | 1005.2 |
| 20260506011507 | 12 | 254 | 17.7 | 38.6 | 0.00 | 0.00 | 0.00 | 46 | 1005.1 |
| 20260506010005 | 12 | 227 | 22.5 | 37.0 | 0.00 | 0.00 | 0.00 | 46 | 1005.1 |
| 20260506004503 | 12 | 217 | 16.1 | 38.6 | 0.00 | 0.00 | 0.00 | 48 | 1004.9 |
| 20260506003003 | 12 | 256 | 20.9 | 38.6 | 0.00 | 0.00 | 0.00 | 50 | 1005.0 |
| 20260506001503 | 13 | 234 | 20.9 | 38.6 | 0.00 | 0.00 | 0.00 | 50 | 1004.8 |
| 20260506000005 | 13 | 216 | 19.3 | 38.6 | 0.00 | 0.00 | 0.00 | 49 | 1004.6 |
| 20260505234503 | 13 | 240 | 20.9 | 45.1 | 0.00 | 0.00 | 0.00 | 51 | 1004.7 |
| 20260505233003 | 13 | 260 | 17.7 | 46.7 | 0.00 | 0.00 | 0.00 | 51 | 1004.6 |
| 20260505231503 | 13 | 246 | 24.1 | 51.5 | 0.00 | 0.00 | 0.00 | 50 | 1004.4 |
| 20260505230010 | 13 | 224 | 27.4 | 61.2 | 0.00 | 0.00 | 0.00 | 50 | 1004.4 |
| 20260505224502 | 13 | 259 | 25.7 | 49.9 | 0.00 | 0.00 | 0.00 | 52 | 1004.4 |
| 20260505223003 | 13 | 240 | 29.0 | 51.5 | 0.00 | 0.00 | 0.00 | 52 | 1004.3 |
| 20260505221503 | 13 | 231 | 30.6 | 61.2 | 0.00 | 0.00 | 0.00 | 52 | 1004.5 |
| 20260505220004 | 13 | 286 | 19.3 | 46.7 | 0.00 | 0.00 | 0.00 | 50 | 1004.6 |
| 20260505214502 | 13 | 260 | 29.0 | 48.3 | 0.00 | 0.00 | 0.00 | 51 | 1004.6 |
| 20260505213007 | 13 | 244 | 20.9 | 53.1 | 0.00 | 0.00 | 0.00 | 52 | 1004.8 |
| 20260505211508 | 12 | 243 | 29.0 | 59.5 | 0.00 | 0.00 | 0.00 | 55 | 1005.2 |
| 20260505210004 | 12 | 240 | 20.9 | 48.3 | 0.00 | 0.00 | 0.00 | 56 | 1005.2 |
| 20260505204503 | 12 | 276 | 25.7 | 51.5 | 0.00 | 0.00 | 0.00 | 60 | 1005.2 |
| 20260505203002 | 11 | 253 | 29.0 | 53.1 | 0.00 | 0.00 | 0.00 | 63 | 1005.4 |
| 20260505201502 | 12 | 277 | 17.7 | 33.8 | 0.00 | 0.00 | 0.00 | 60 | 1005.2 |
| 20260505200007 | 10 | 277 | 19.3 | 40.2 | 0.00 | 0.00 | 0.00 | 66 | 1005.4 |
| 20260505194502 | 11 | 235 | 25.7 | 53.1 | 0.00 | 0.00 | 0.00 | 68 | 1005.7 |
| 20260505193003 | 11 | 240 | 25.7 | 48.3 | 0.00 | 0.00 | 0.00 | 65 | 1005.5 |
| 20260505191509 | 12 | 269 | 17.7 | 40.2 | 0.00 | 0.00 | 0.00 | 58 | 1005.4 |
| 20260505190010 | 12 | 286 | 27.4 | 48.3 | 0.00 | 0.00 | 0.00 | 55 | 1005.4 |
| 20260505184507 | 14 | 255 | 24.1 | 48.3 | 0.00 | 0.00 | 0.00 | 46 | 1005.0 |
| 20260505183011 | 15 | 253 | 27.4 | 53.1 | 0.00 | 0.00 | 0.00 | 45 | 1004.6 |
| 20260505181503 | 13 | 254 | 33.8 | 66.0 | 0.00 | 0.00 | 0.00 | 45 | 1005.0 |
| 20260505180003 | 15 | 267 | 22.5 | 56.3 | 0.00 | 0.00 | 0.00 | 44 | 1004.7 |
| 20260505174506 | 13 | 250 | 32.2 | 62.8 | 0.00 | 0.00 | 0.00 | 44 | 1005.0 |
| 20260505173002 | 14 | 213 | 20.9 | 48.3 | 0.00 | 0.00 | 0.00 | 42 | 1005.1 |
| 20260505171506 | 14 | 263 | 20.9 | 51.5 | 0.00 | 0.00 | 0.00 | 38 | 1005.2 |
| 20260505170004 | 14 | 248 | 16.1 | 43.5 | 0.00 | 0.00 | 0.00 | 39 | 1005.4 |
| 20260505164503 | 13 | 257 | 25.7 | 51.5 | 0.00 | 0.00 | 0.00 | 39 | 1005.1 |
| 20260505163002 | 13 | 287 | 17.7 | 35.4 | 0.00 | 0.00 | 0.00 | 37 | 1005.3 |
| 20260505161502 | 13 | 285 | 11.3 | 29.0 | 0.00 | 0.00 | 0.00 | 38 | 1005.3 |
| 20260505153003 | 13 | 270 | 17.7 | 48.3 | 0.00 | 0.00 | 0.00 | 36 | 1004.6 |
| 20260505151503 | 13 | 240 | 17.7 | 33.8 | 0.00 | 0.00 | 0.00 | 38 | 1004.5 |
| 20260505124502 | 11 | 230 | 19.3 | 37.0 | 0.00 | 0.00 | 0.00 | 44 | 1003.2 |
| 20260505123003 | 11 | 250 | 20.9 | 46.7 | 0.00 | 0.00 | 0.00 | 45 | 1002.9 |
| 20260505121507 | 12 | 259 | 20.9 | 45.1 | 0.00 | 0.00 | 0.00 | 44 | 1003.0 |
| 20260505120005 | 11 | 313 | 20.9 | 41.8 | 0.00 | 0.00 | 0.00 | 44 | 1002.6 |
| 20260505114504 | 12 | 265 | 19.3 | 45.1 | 0.00 | 0.00 | 0.00 | 44 | 1002.6 |
| 20260505113010 | 12 | 229 | 20.9 | 53.1 | 0.00 | 0.00 | 0.00 | 43 | 1002.6 |
| 20260505111503 | 12 | 240 | 22.5 | 40.2 | 0.00 | 0.00 | 0.00 | 43 | 1002.6 |
| 20260505101501 | 13 | 239 | 17.7 | 41.8 | 0.00 | 0.00 | 0.00 | 41 | 1002.5 |
| 20260505100004 | 13 | 258 | 19.3 | 40.2 | 0.00 | 0.00 | 0.00 | 40 | 1002.9 |
| 20260505094503 | 13 | 264 | 17.7 | 38.6 | 0.00 | 0.00 | 0.00 | 39 | 1003.3 |
| 20260505093003 | 13 | 275 | 22.5 | 53.1 | 0.00 | 0.00 | 0.00 | 38 | 1003.3 |